Location: Newark
(69.0000°N, 72.0000°W)
Time: 01:36:37
(UTC+00:00)

N. Korean satellite - Visible Passes

Search period start: 20 October 2019 00:00
Search period end: 30 October 2019 00:00
Orbit: 455 x 508 km, 97.2° (Epoch: 19 October)

Date Brightness Start Highest point End Pass type
(mag) Time Alt. Az. Time Alt. Az. Time Alt. Az.
20 Oct 10.1 09:26:55 10° NE 09:28:55 14° E 09:30:55 10° ESE visible
20 Oct 7.6 10:59:37 10° NNE 11:03:07 51° ESE 11:06:39 10° S visible
20 Oct 7.9 21:48:55 10° S 21:52:16 45° W 21:55:40 10° NNW visible
20 Oct 10.2 23:25:04 10° WSW 23:26:35 12° WNW 23:28:05 10° NW visible
21 Oct 10.6 09:03:05 10° ENE 09:03:14 10° ENE 09:03:23 10° ENE visible
21 Oct 8.5 10:34:21 10° NNE 10:37:41 35° E 10:41:02 10° SSE visible
21 Oct 9.9 22:58:32 10° SW 23:00:56 17° W 23:03:21 10° NW visible
22 Oct 9.2 10:09:09 10° NE 10:12:10 25° E 10:15:14 10° SSE visible
22 Oct 9.3 22:32:27 10° SSW 22:35:20 24° W 22:38:18 10° NW visible
23 Oct 9.8 09:44:03 10° NE 09:46:36 18° E 09:49:10 10° SE visible
23 Oct 7.0 11:17:04 10° NNE 11:20:39 68° ESE 11:24:17 10° S visible
23 Oct 8.5 22:06:36 10° SSW 22:09:49 34° W 22:13:07 10° NNW visible
24 Oct 10.2 09:19:13 10° NE 09:20:59 13° E 09:22:44 10° ESE visible
24 Oct 7.9 10:51:45 10° NNE 10:55:15 46° ESE 10:58:47 10° S visible
24 Oct 7.6 21:40:56 10° S 21:44:22 51° WSW 21:47:51 10° NNW visible
24 Oct 10.1 23:16:43 10° WSW 23:18:36 14° W 23:20:30 10° NW visible
25 Oct 8.7 10:26:29 10° NNE 10:29:46 32° E 10:33:06 10° SSE visible
25 Oct 9.7 22:50:22 10° SW 22:52:58 19° W 22:55:37 10° NW visible
26 Oct 9.4 10:01:18 10° NE 10:04:15 23° E 10:07:13 10° SE visible
26 Oct 6.7 11:34:30 10° NNE 11:38:08 88° ESE 11:41:49 10° SSW visible
26 Oct 9.0 22:24:21 10° SSW 22:27:24 27° W 22:30:30 10° NNW visible
27 Oct 9.9 09:36:14 10° NE 09:38:38 17° E 09:41:04 10° SE visible
27 Oct 7.3 11:09:09 10° NNE 11:12:46 60° ESE 11:16:25 10° S visible
27 Oct 8.2 21:58:33 10° S 22:01:53 39° W 22:05:17 10° NNW visible
27 Oct 10.4 23:35:16 10° W 23:36:18 11° WNW 23:37:19 10° WNW visible
28 Oct 10.3 09:11:32 10° NE 09:12:59 12° ENE 09:14:26 10° E visible
28 Oct 8.1 10:43:51 10° NNE 10:47:19 41° E 10:50:50 10° S visible
28 Oct 7.3 21:32:57 10° S 21:36:26 58° WSW 21:39:59 10° NNW visible
28 Oct 10.0 23:08:24 10° WSW 23:10:36 15° W 23:12:49 10° NW visible
29 Oct 8.9 10:18:35 10° NNE 10:21:50 29° E 10:25:06 10° SSE visible
29 Oct 6.6 21:07:30 10° SSE 21:11:02 85° WSW 21:14:40 10° NNW visible
29 Oct 9.4 22:42:10 10° SW 22:44:58 22° W 22:47:50 10° NW visible
